RYR45KP EGKK-EIDW

Flight info

Callsign RYR45KP
Flight time N/A
Altitude 32000
Route IMVUR N63 VOUGA N14 BIBPE DCT OKTAD DCT MEDOG DCT KRAGY DCT PEMOB M17 VATRY VATRY4L
Aircraft B738/M-SDE2E3FGHIRWXY/LB1

Departure

Time 2026-05-04 19:32
Airport London Gatwick Airport (EGKK)

Arrival

Time N/A
Airport Dublin Airport (EIDW)
Time Latitude Longitude Altitude Speed Heading
2026-05-04 18:56 51.15446 -0.16429 204 ft 0 kts 77°
2026-05-04 19:13 51.15446 -0.16431 204 ft 1 kts 78°
2026-05-04 19:14 51.15441 -0.16468 204 ft 4 kts 83°
2026-05-04 19:14 51.15444 -0.16506 212 ft 4 kts 127°
2026-05-04 19:14 51.15463 -0.16530 212 ft 3 kts 161°
2026-05-04 19:14 51.15470 -0.16533 213 ft 0 kts 162°
2026-05-04 19:19 51.15463 -0.16530 212 ft 4 kts 162°
2026-05-04 19:19 51.15425 -0.16538 208 ft 8 kts 226°
2026-05-04 19:19 51.15402 -0.16635 213 ft 10 kts 256°
2026-05-04 19:19 51.15385 -0.16747 211 ft 12 kts 257°
2026-05-04 19:20 51.15364 -0.16898 209 ft 16 kts 257°
2026-05-04 19:20 51.15341 -0.17069 208 ft 16 kts 257°
2026-05-04 19:20 51.15325 -0.17184 207 ft 8 kts 257°
2026-05-04 19:20 51.15315 -0.17252 215 ft 5 kts 257°
2026-05-04 19:21 51.15312 -0.17273 208 ft 0 kts 257°
2026-05-04 19:24 51.15311 -0.17284 204 ft 6 kts 257°
2026-05-04 19:24 51.15302 -0.17426 214 ft 17 kts 263°
2026-05-04 19:25 51.15278 -0.17621 204 ft 18 kts 258°
2026-05-04 19:25 51.15250 -0.17820 204 ft 20 kts 257°
2026-05-04 19:25 51.15226 -0.17984 211 ft 13 kts 258°
2026-05-04 19:25 51.15208 -0.18124 204 ft 10 kts 258°
2026-05-04 19:26 51.15193 -0.18235 207 ft 12 kts 261°
2026-05-04 19:26 51.15178 -0.18382 204 ft 16 kts 258°
2026-05-04 19:26 51.15154 -0.18550 209 ft 13 kts 257°
2026-05-04 19:26 51.15135 -0.18691 204 ft 13 kts 258°
2026-05-04 19:27 51.15122 -0.18786 207 ft 8 kts 258°
2026-05-04 19:27 51.15110 -0.18874 208 ft 9 kts 258°
2026-05-04 19:27 51.15096 -0.18980 208 ft 10 kts 258°
2026-05-04 19:27 51.15081 -0.19089 207 ft 10 kts 258°
2026-05-04 19:28 51.15065 -0.19205 207 ft 12 kts 251°
2026-05-04 19:28 51.14991 -0.19271 209 ft 13 kts 202°
2026-05-04 19:28 51.14946 -0.19411 206 ft 18 kts 256°
2026-05-04 19:28 51.14911 -0.19658 211 ft 26 kts 257°
2026-05-04 19:29 51.14872 -0.19943 207 ft 26 kts 257°
2026-05-04 19:29 51.14833 -0.20218 204 ft 25 kts 257°
2026-05-04 19:29 51.14809 -0.20390 210 ft 23 kts 258°
2026-05-04 19:29 51.14764 -0.20719 208 ft 22 kts 257°
2026-05-04 19:30 51.14742 -0.20878 206 ft 22 kts 257°
2026-05-04 19:30 51.14719 -0.21041 206 ft 10 kts 257°
2026-05-04 19:30 51.14702 -0.21162 204 ft 0 kts 257°
2026-05-04 19:31 51.14697 -0.21199 186 ft 9 kts 257°
2026-05-04 19:31 51.14664 -0.21317 212 ft 13 kts 213°
2026-05-04 19:31 51.14577 -0.21307 208 ft 13 kts 158°
2026-05-04 19:31 51.14523 -0.21194 212 ft 13 kts 93°
2026-05-04 19:32 51.14546 -0.20998 208 ft 41 kts 77°
2026-05-04 19:32 51.14665 -0.20148 209 ft 114 kts 78°
2026-05-04 19:32 51.14884 -0.18611 321 ft 162 kts 77°
2026-05-04 19:32 51.15080 -0.16739 812 ft 187 kts 83°
2026-05-04 19:33 51.15330 -0.14608 1521 ft 191 kts 75°
2026-05-04 19:33 51.15631 -0.12631 2590 ft 177 kts 75°
2026-05-04 19:33 51.15909 -0.10735 2851 ft 172 kts 76°
2026-05-04 19:33 51.16167 -0.08915 3020 ft 167 kts 76°
2026-05-04 19:34 51.16419 -0.07108 2985 ft 166 kts 76°
2026-05-04 19:34 51.16897 -0.05484 2923 ft 162 kts 40°
2026-05-04 19:34 51.17897 -0.04826 2927 ft 159 kts 358°
2026-05-04 19:34 51.18970 -0.05186 3050 ft 164 kts 350°
2026-05-04 19:35 51.20097 -0.05557 3158 ft 161 kts 351°
2026-05-04 19:35 51.21234 -0.05933 3702 ft 176 kts 351°
2026-05-04 19:35 51.22499 -0.06574 4046 ft 203 kts 325°
2026-05-04 19:35 51.23253 -0.08497 4545 ft 217 kts 281°
2026-05-04 19:36 51.23074 -0.10964 4938 ft 231 kts 254°
2026-05-04 19:36 51.22628 -0.13482 5370 ft 239 kts 256°
2026-05-04 19:36 51.22217 -0.16063 5791 ft 240 kts 257°
2026-05-04 19:36 51.21843 -0.18652 6224 ft 239 kts 258°
2026-05-04 19:37 51.21497 -0.21252 6682 ft 239 kts 258°
2026-05-04 19:37 51.21173 -0.23855 7119 ft 239 kts 259°
2026-05-04 19:37 51.20861 -0.26459 7573 ft 240 kts 259°
2026-05-04 19:37 51.20552 -0.29084 8039 ft 241 kts 259°
2026-05-04 19:38 51.20265 -0.31533 8366 ft 256 kts 259°
2026-05-04 19:38 51.19918 -0.34493 8520 ft 277 kts 259°
2026-05-04 19:38 51.19533 -0.37559 9020 ft 285 kts 258°